This demonstration page uses our WeatherBlox Daily Observations layout. Learn more.

Hourly Observations for July 11, 2020

Temp ( °F °C ) Dew Point ( °F °C ) Humidity (%) Winds ( mph kmh ) Pressure ( in mb ) Visibility ( mi km ) Precip ( " mm )
12:15 am 00:15 Mostly Cloudy 77 25 72 22 83 83 NE 6 9 29.76 1008 10 16.0934 0 0
12:35 am 00:35 Mostly Cloudy 73 23 72 22 94 94 NNE 3 6 29.77 1008 10 16.0934 0 0
12:55 am 00:55 Mostly Cloudy 73 23 72 22 94 94 N 3 6 29.77 1008 7 11.26538 0 0
1:15 am 01:15 Partly Cloudy 72 22 72 22 100 100 NW 3 6 29.76 1008 10 16.0934 0 0
1:35 am 01:35 Clear 72 22 72 22 100 100 Calm 29.75 1007 10 16.0934 0 0
1:55 am 01:55 Clear 72 22 72 22 100 100 SSW 3 6 29.74 1007 10 16.0934 0 0
2:15 am 02:15 Clear 70 21 70 21 100 100 Calm 29.74 1007 10 16.0934 0 0
2:35 am 02:35 Clear 70 21 70 21 100 100 Calm 29.74 1007 10 16.0934 0 0
2:55 am 02:55 Clear 70 21 70 21 100 100 WSW 3 6 29.74 1007 10 16.0934 0 0
3:15 am 03:15 Clear 70 21 70 21 100 100 SW 3 6 29.74 1007 10 16.0934 0 0
3:35 am 03:35 Clear 70 21 70 21 100 100 WSW 3 6 29.73 1007 10 16.0934 0 0
3:55 am 03:55 Clear 70 21 70 21 100 100 Calm 29.73 1007 10 16.0934 0 0
4:15 am 04:15 Clear 70 21 70 21 100 100 Calm 29.73 1007 10 16.0934 0 0
4:35 am 04:35 Clear 68 20 68 20 100 100 Calm 29.72 1006 10 16.0934 0 0
4:55 am 04:55 Clear 68 20 68 20 100 100 Calm 29.72 1006 10 16.0934 0 0
5:15 am 05:15 Clear 68 20 68 20 100 100 W 3 6 29.72 1006 10 16.0934 0 0
5:35 am 05:35 Clear 68 20 68 20 100 100 Calm 29.72 1006 10 16.0934 0 0
5:55 am 05:55 Sunny 68 20 68 20 100 100 Calm 29.72 1006 10 16.0934 0 0
6:15 am 06:15 Sunny 68 20 68 20 100 100 SSW 5 7 29.72 1006 10 16.0934 0 0
6:55 am 06:55 Sunny 68 20 68 20 100 100 Calm 29.72 1006 10 16.0934 0 0
7:15 am 07:15 Sunny 68 20 68 20 100 100 Calm 29.73 1007 10 16.0934 0 0
7:35 am 07:35 Sunny 68 20 68 20 100 100 Calm 29.74 1007 10 16.0934 0 0
7:55 am 07:55 Partly Cloudy 70 21 70 21 100 100 Calm 29.74 1007 10 16.0934 0 0
8:15 am 08:15 Partly Cloudy 72 22 70 21 94 94 Calm 29.74 1007 10 16.0934 0 0
8:35 am 08:35 Partly Cloudy 72 22 70 21 94 94 SSW 3 6 29.74 1007 10 16.0934 0 0
8:55 am 08:55 Mostly Cloudy 73 23 70 21 89 89 SSW 3 6 29.75 1007 10 16.0934 0 0
9:15 am 09:15 Partly Cloudy 75 24 68 20 78 78 WSW 5 7 29.75 1007 10 16.0934 0 0
9:35 am 09:35 Mostly Cloudy 77 25 68 20 74 74 SW 3 6 29.74 1007 10 16.0934 0 0
9:55 am 09:55 Mostly Cloudy 79 26 70 21 74 74 W 6 9 29.74 1007 10 16.0934 0 0
10:15 am 10:15 Mostly Cloudy 79 26 68 20 70 70 WSW 3 6 29.74 1007 10 16.0934 0 0
10:35 am 10:35 Cloudy 79 26 70 21 74 74 W 3 6 29.75 1008 10 16.0934 0 0
10:55 am 10:55 Cloudy 81 27 68 20 66 66 WNW 5 7 29.75 1008 10 16.0934 0 0
11:15 am 11:15 Cloudy 82 28 68 20 62 62 W 13 20 29.74 1007 10 16.0934 0 0
11:35 am 11:35 Mostly Cloudy 82 28 68 20 62 62 WNW 9 15 29.74 1007 10 16.0934 0 0
11:55 am 11:55 Cloudy 82 28 68 20 62 62 WNW 13 20 29.75 1007 10 16.0934 0 0
12:15 pm 12:15 Cloudy 82 28 66 19 58 58 W 13 20 29.75 1007 10 16.0934 0 0
12:35 pm 12:35 Mostly Cloudy 84 29 64 18 51 51 WNW 8 13 29.74 1007 10 16.0934 0 0
12:55 pm 12:55 Partly Cloudy 86 30 64 18 49 49 W 18 30 29.74 1007 10 16.0934 0 0
1:15 pm 13:15 Mostly Cloudy 86 30 64 18 49 49 WNW 14 22 29.74 1007 10 16.0934 0 0
1:35 pm 13:35 Cloudy 84 29 63 17 48 48 NW 16 26 29.74 1007 10 16.0934 0 0
1:55 pm 13:55 Mostly Cloudy 86 30 63 17 46 46 W 14 22 29.73 1007 10 16.0934 0 0
2:15 pm 14:15 Mostly Cloudy 88 31 64 18 46 46 W 14 22 29.73 1007 10 16.0934 0 0
2:35 pm 14:35 Mostly Cloudy 84 29 63 17 48 48 WNW 14 22 29.72 1006 10 16.0934 0 0
2:55 pm 14:55 Mostly Cloudy 86 30 64 18 49 49 WNW 12 19 29.72 1006 10 16.0934 0 0
3:15 pm 15:15 Mostly Cloudy 84 29 64 18 51 51 W 7 11 29.72 1006 10 16.0934 0 0
3:35 pm 15:35 Cloudy 86 30 64 18 49 49 W 13 20 29.72 1006 10 16.0934 0 0
3:55 pm 15:55 Cloudy 84 29 64 18 51 51 WNW 9 15 29.72 1006 10 16.0934 0 0
4:15 pm 16:15 Cloudy 86 30 66 19 52 52 WNW 15 24 29.72 1006 10 16.0934 0 0
4:35 pm 16:35 Cloudy 86 30 64 18 49 49 WNW 15 24 29.72 1006 10 16.0934 0 0
4:55 pm 16:55 Cloudy 84 29 64 18 51 51 NW 17 28 29.72 1006 10 16.0934 0 0
5:15 pm 17:15 Cloudy 82 28 64 18 55 55 WNW 14 22 29.73 1007 10 16.0934 0 0
5:35 pm 17:35 Cloudy 84 29 66 19 55 55 NW 12 19 29.73 1007 10 16.0934 0 0
5:55 pm 17:55 Mostly Cloudy 84 29 66 19 55 55 NW 10 17 29.73 1007 10 16.0934 0 0
6:15 pm 18:15 Partly Cloudy 84 29 66 19 55 55 WNW 16 26 29.73 1007 10 16.0934 0 0
6:35 pm 18:35 Sunny 84 29 66 19 55 55 NW 13 20 29.74 1007 10 16.0934 0 0
6:55 pm 18:55 Partly Cloudy 81 27 66 19 62 62 NNW 6 9 29.74 1007 10 16.0934 0 0
7:15 pm 19:15 Cloudy 81 27 68 20 66 66 NW 6 9 29.75 1008 10 16.0934 0 0
7:35 pm 19:35 Mostly Cloudy 82 28 68 20 62 62 WNW 7 11 29.75 1007 10 16.0934 0 0
7:55 pm 19:55 Partly Cloudy 81 27 66 19 62 62 NNW 5 7 29.75 1008 10 16.0934 0 0
8:15 pm 20:15 Sunny 81 27 68 20 66 66 WNW 3 6 29.76 1008 10 16.0934 0 0
8:35 pm 20:35 Mostly Cloudy 79 26 68 20 70 70 WNW 3 6 29.76 1008 10 16.0934 0 0
8:55 pm 20:55 Cloudy 79 26 68 20 70 70 Calm 29.77 1008 10 16.0934 0 0
9:15 pm 21:15 Mostly Cloudy 79 26 68 20 70 70 WNW 5 7 29.77 1008 10 16.0934 0 0
9:35 pm 21:35 Mostly Cloudy 77 25 68 20 74 74 W 3 6 29.78 1009 10 16.0934 0 0
9:55 pm 21:55 Partly Cloudy 77 25 68 20 74 74 W 5 7 29.79 1009 10 16.0934 0 0
10:15 pm 22:15 Partly Cloudy 77 25 66 19 69 69 W 5 7 29.79 1009 10 16.0934 0 0
10:35 pm 22:35 Clear 73 23 64 18 74 74 W 5 7 29.8 1009 10 16.0934 0 0
10:55 pm 22:55 Clear 73 23 64 18 74 74 W 6 9 29.8 1009 10 16.0934 0 0
11:15 pm 23:15 Clear 73 23 64 18 74 74 W 6 9 29.8 1009 10 16.0934 0 0
11:35 pm 23:35 Clear 72 22 63 17 73 73 W 5 7 29.81 1009 10 16.0934 0 0
11:55 pm 23:55 Clear 73 23 63 17 69 69 S 6 9 29.81 1009 10 16.0934 0 0

Powered by AerisWeather